Regional Weather Roundup
Issued by NWS

Home | Current Version | Previous Version | Graphics & Text | Print | Product List | Glossary On
Versions: 1 2 3 4 5 6 7 8 9 10 11 12 13 14 15 16 17 18 19 20 21 22 23 24 25 26 27 28 29 30 31 32 33 34 35 36 37 38 39 40 41 42 43 44 45 46 47 48 49 50
000
ASUS45 KCYS 030010
RWRWY

WYOMING REGIONAL WEATHER ROUNDUP
NATIONAL WEATHER SERVICE CHEYENNE WY
500 PM MST FRI DEC 02 2016

NOTE:  "FAIR" INDICATES FEW OR NO CLOUDS BELOW 12,000 FEET
WITH NO SIGNIFICANT WEATHER AND/OR OBSTRUCTIONS TO VISIBILITY.

WYZ001-030100-
YELLOWSTONE NATIONAL PARK

CITY           SKY/WX    TMP DP  RH WIND       PRES   REMARKS
LK YELLOWSTONE   N/A     15   8  73 W5        30.12R WCI   8
6HR MIN TEMP:  15; 6HR MAX TEMP:  22;

W YELLOWSTONE  NOT AVBL

$$
WYZ002>013-054>058-071-098>099-030100-
NORTHERN WYOMING

CITY           SKY/WX    TMP DP  RH WIND       PRES   REMARKS
JACKSON        FAIR      19  14  79 S7        30.15S WCI  10
CODY           FAIR      32   5  32 SW15G21   30.08S WCI  22
GREYBULL       FAIR      33  20  58 SE6       30.11F WCI  28
6HR MIN TEMP:  32; 6HR MAX TEMP:  38;

WORLAND        FAIR      28  19  69 SE8       30.11F WCI  20
6HR MIN TEMP:  28; 6HR MAX TEMP:  37;

SHERIDAN       FAIR      29  20  69 S3        30.09F
6HR MIN TEMP:  27; 6HR MAX TEMP:  40;

BUFFALO        FAIR      27  16  63 W7        30.08F WCI  19
6HR MIN TEMP:  26; 6HR MAX TEMP:  38;

GILLETTE       MOCLDY    22  17  81 S8        30.12F WCI  12
6HR MIN TEMP:  20; 6HR MAX TEMP:  37;

HULETT         FAIR      30  21  69 S7        30.14F WCI  23
NEWCASTLE      FAIR      28  21  74 CALM      30.17S

$$
WYZ014>020-022>026-101>103-030100-
CENTRAL WYOMING

CITY           SKY/WX    TMP DP  RH WIND       PRES   REMARKS
BIG PINEY      CLOUDY    21  11  65 SW7       30.14R WCI  12
6HR MIN TEMP:  21; 6HR MAX TEMP:  28;

PINEDALE       FAIR      21  10  63 W7        30.14R WCI  13
DUBOIS         FAIR      19   9  63 NW8       30.08S WCI   9
LANDER         FAIR      23  14  68 W7        30.10F WCI  15
6HR MIN TEMP:  23; 6HR MAX TEMP:  31;

RIVERTON       FAIR      26  16  65 S6        30.12F WCI  19
6HR MIN TEMP:  26; 6HR MAX TEMP:  33;

CASPER         FAIR      23  17  78 SW8       30.14S WCI  14
6HR MIN TEMP:  23; 6HR MAX TEMP:  33;

DOUGLAS        MOCLDY    27  20  75 E5        30.16S WCI  22
6HR MIN TEMP:  27; 6HR MAX TEMP:  36; 6HR PCP: TRACE;


$$
WYZ021-027>030-104>119-030100-
SOUTHERN WYOMING

CITY           SKY/WX    TMP DP  RH WIND       PRES   REMARKS
EVANSTON       FAIR      19   8  62 N6        30.16R WCI  11
6HR MIN TEMP:  19; 6HR MAX TEMP:  25;

FORT BRIDGER   FAIR      22  11  63 W5        30.19R WCI  16
ROCK SPRINGS   MOCLDY    18  12  77 NW7       30.15R WCI   9
6HR MIN TEMP:  17; 6HR MAX TEMP:  25; 6HR PCP: TRACE;

DIXON          CLOUDY    20  13  76 CALM      30.16R
RAWLINS        FAIR      13   7  77 CALM      30.12R
6HR MIN TEMP:  13; 6HR MAX TEMP:  25; 6HR PCP: TRACE;

SARATOGA       CLOUDY    19  14  79 CALM      30.12S
LARAMIE        MOCLDY    18  13  80 SE9       30.07S WCI   7
6HR MIN TEMP:  18; 6HR MAX TEMP:  24; 6HR PCP: TRACE;

CHEYENNE       MOCLDY    25  21  85 S8        30.13S WCI  16
6HR MIN TEMP:  25; 6HR MAX TEMP:  31; 6HR PCP:  0.01;

TORRINGTON     MOCLDY    33  20  58 SE3       30.17S
6HR MIN TEMP:  32; 6HR MAX TEMP:  40;

PINE BLUFFS    CLOUDY    30  27  86 S10       30.18S WCI  21

$$



USA.gov is the U.S. government's official web portal to all federal, state and local government web resources and services.